George, South Africa

3:30 AM SAST on September 29, 2016 (GMT +0200)
George

Weather History for 68828 - March, 2014

Change the Weather History Date:

Monday, March 31, 2014

  Actual Average Record
Temperature  
Mean Temperature 61 °F -  
Max Temperature 69 °F - - ()
Min Temperature 53 °F - - ()
Degree Days  
Heating Degree Days 4    
Growing Degree Days 11 (Base 50)    
Moisture  
Dew Point 57 °F    
Average Humidity 82    
Maximum Humidity 94    
Minimum Humidity 67    
Precipitation  
Precipitation 0.12 in - - ()
Sea Level Pressure  
Sea Level Pressure 29.92 in    
Wind  
Wind Speed 4 mph ()    
Max Wind Speed 8 mph    
Max Gust Speed -    
Visibility 7.8 miles    
Events      
T = Trace of Precipitation, MM = Missing Value Source: Averaged Metar Reports

Daily Weather History Graph

Daily Weather History Graph

Search for Another Location

Airport or City:

Trip Planner

Search our weather history database for the weather conditions in past years. The results will help you decide how hot, cold, wet, or windy it might be!

Date:

Astronomy

Mar. 31, 2014 Rise Set
Actual Time 6:41 AM SAST 6:26 PM SAST
Civil Twilight 6:16 AM SAST 6:51 PM SAST
Nautical Twilight 5:47 AM SAST 7:20 PM SAST
Astronomical Twilight 5:18 AM SAST 7:49 PM SAST
Moon 7:14 AM SAST (3/31) 6:51 PM SAST (3/31)
Length of Visible Light 12h 35m
Length of Day
11h 45m
New Moon, 1% of the Moon is Illuminated
Mar 31
New Moon
Apr 7
First Quarter
Apr 15
Full
Apr 22
Last Quarter
Apr 29
New

Hourly Weather History & Observations

Time (SAST) Temp. Dew Point Humidity Pressure Visibility Wind Dir Wind Speed Gust Speed Precip Events Conditions
2:00 AM 55 °F 53 °F 90% 30.01 in 19 mi WNW 2.3 mph - -  
4:00 AM 55.4 °F 51.8 °F 88% 29.95 in 6.2 mi NW 2.3 mph - N/A   Partly Cloudy
5:00 AM 55 °F 53 °F 91% 29.95 in 12 mi North 2.3 mph - -   Scattered Clouds
5:00 AM 55.4 °F 53.6 °F 94% 29.92 in 6.2 mi North 2.3 mph - N/A   Partly Cloudy
6:00 AM 55.4 °F 51.8 °F 88% 29.95 in 6.2 mi North 3.5 mph - N/A   Scattered Clouds
7:00 AM 55.4 °F 53.6 °F 94% 29.95 in 6.2 mi NNW 3.5 mph - N/A   Scattered Clouds
8:00 AM 58 °F 55 °F 88% 29.97 in 12 mi 2.3 mph - -   Scattered Clouds
8:00 AM 59.0 °F 55.4 °F 88% 29.95 in 6.2 mi Variable 2.3 mph - N/A   Partly Cloudy
9:00 AM 64.4 °F 59.0 °F 83% 29.98 in 6.2 mi Variable 1.2 mph - N/A   Partly Cloudy
10:00 AM 66.2 °F 57.2 °F 73% 29.98 in 6.2 mi SE 3.5 mph - N/A   Scattered Clouds
11:00 AM 67 °F 60 °F 70% 29.97 in 12 mi South 5.8 mph - -   Mostly Cloudy
11:00 AM 66.2 °F 59.0 °F 78% 29.95 in 6.2 mi South 5.8 mph - N/A   Scattered Clouds
12:00 PM 66.2 °F 59.0 °F 78% 29.92 in 6.2 mi South 5.8 mph - N/A   Mostly Cloudy
1:00 PM 68.0 °F 59.0 °F 73% 29.92 in 5.0 mi SE 6.9 mph - N/A   Mostly Cloudy
2:00 PM 67 °F 59 °F 67% 29.91 in 12 mi SSE 8.1 mph - -   Mostly Cloudy
2:00 PM 68.0 °F 59.0 °F 73% 29.89 in 6.2 mi SSE 8.1 mph - N/A   Mostly Cloudy
3:00 PM 66.2 °F 59.0 °F 78% 29.89 in 6.2 mi SSE 8.1 mph - N/A   Mostly Cloudy
4:00 PM 66.2 °F 59.0 °F 78% 29.89 in 6.2 mi SE 6.9 mph - N/A   Mostly Cloudy
5:00 PM 65 °F 59 °F 75% 29.88 in 12 mi SE 6.9 mph - -   Mostly Cloudy
5:00 PM 64.4 °F 59.0 °F 83% 29.86 in 6.2 mi SE 6.9 mph - N/A   Mostly Cloudy
6:00 PM 64.4 °F 59.0 °F 83% 29.86 in 6.2 mi SSE 6.9 mph - N/A   Mostly Cloudy
7:00 PM 64.4 °F 59.0 °F 83% 29.89 in 6.2 mi South 4.6 mph - N/A   Mostly Cloudy
8:00 PM 64 °F 60 °F 82% 29.91 in 12 mi SSE 2.3 mph - -   Mostly Cloudy
8:00 PM 64.4 °F 59.0 °F 83% 29.89 in 6.2 mi Variable 2.3 mph - N/A   Mostly Cloudy
9:00 PM 64.4 °F 59.0 °F 83% 29.89 in 6.2 mi Variable 2.3 mph - N/A   Mostly Cloudy
10:00 PM 62.6 °F 59.0 °F 88% 29.89 in 5.6 mi NW 3.5 mph - N/A   Mostly Cloudy
11:00 PM 60.8 °F 59.0 °F 94% 29.89 in 3.1 mi NW 4.6 mph - N/A   Overcast